When you browse on this site, cookies collect data to enhance your experience and personalize the content and advertising you see.
Visit our Privacy Policy to learn more. By continuing to use the site, you agree to this use of cookies and data.
EN

Hourly Weather Herāt

Today, 11 July, Saturday

Time Temperature Precipitation Wind Pressure Humidity
00:00 +27°C° 0 mm 5 mps 675 mmHg 22%
01:00 +27°C° 0 mm 5 mps 675 mmHg 23%
02:00 +26°C° 0 mm 5 mps 675 mmHg 25%
03:00 +25°C° 0 mm 5 mps 675 mmHg 27%
04:00 +23°C° 0 mm 4 mps 675 mmHg 29%
05:00 +26°C° 0 mm 5 mps 675 mmHg 26%
06:00 +28°C° 0 mm 6 mps 676 mmHg 24%
07:00 +30°C° 0 mm 7 mps 677 mmHg 21%
08:00 +32°C° 0 mm 9 mps 677 mmHg 20%
09:00 +33°C° 0 mm 11 mps 677 mmHg 19%
10:00 +36°C° 0 mm 13 mps 677 mmHg 18%
11:00 +37°C° 0 mm 13 mps 677 mmHg 18%
12:00 +37°C° 0 mm 13 mps 677 mmHg 19%
13:00 +38°C° 0 mm 13 mps 677 mmHg 19%
14:00 +37°C° 0 mm 13 mps 677 mmHg 19%
15:00 +37°C° 0 mm 12 mps 676 mmHg 20%
16:00 +37°C° 0 mm 12 mps 676 mmHg 20%
17:00 +34°C° 0 mm 11 mps 676 mmHg 20%
18:00 +33°C° 0 mm 9 mps 676 mmHg 20%
19:00 +31°C° 0 mm 8 mps 676 mmHg 21%
20:00 +29°C° 0 mm 7 mps 676 mmHg 22%
21:00 +28°C° 0 mm 6 mps 675 mmHg 23%
22:00 +26°C° 0 mm 5 mps 675 mmHg 24%
23:00 +26°C° 0 mm 5 mps 675 mmHg 26%

Tomorrow, 12 July, Sunday

Time Temperature Precipitation Wind Pressure Humidity
00:00 +25°C° 0 mm 4 mps 674 mmHg 28%
01:00 +23°C° 0 mm 4 mps 674 mmHg 30%
02:00 +23°C° 0 mm 4 mps 674 mmHg 31%
03:00 +22°C° 0 mm 4 mps 673 mmHg 32%
04:00 +22°C° 0 mm 4 mps 673 mmHg 33%
05:00 +25°C° 0 mm 5 mps 674 mmHg 30%
06:00 +27°C° 0 mm 7 mps 674 mmHg 27%
07:00 +29°C° 0 mm 8 mps 675 mmHg 23%
08:00 +31°C° 0 mm 9 mps 675 mmHg 21%
09:00 +33°C° 0 mm 11 mps 675 mmHg 19%
10:00 +34°C° 0 mm 12 mps 675 mmHg 17%
11:00 +36°C° 0 mm 12 mps 675 mmHg 16%
12:00 +37°C° 0 mm 12 mps 675 mmHg 15%
13:00 +38°C° 0 mm 12 mps 675 mmHg 14%
14:00 +38°C° 0 mm 12 mps 675 mmHg 14%
15:00 +38°C° 0 mm 11 mps 674 mmHg 14%
16:00 +38°C° 0 mm 11 mps 674 mmHg 14%
17:00 +36°C° 0 mm 10 mps 674 mmHg 15%
18:00 +34°C° 0 mm 9 mps 674 mmHg 17%
19:00 +32°C° 0 mm 8 mps 673 mmHg 18%
20:00 +30°C° 0 mm 7 mps 673 mmHg 20%
21:00 +28°C° 0 mm 6 mps 673 mmHg 21%
22:00 +27°C° 0 mm 5 mps 673 mmHg 23%
23:00 +26°C° 0 mm 5 mps 673 mmHg 25%

Day after tomorrow, 13 July, Monday

Time Temperature Precipitation Wind Pressure Humidity
00:00 +25°C° 0 mm 4 mps 672 mmHg 26%
01:00 +25°C° 0 mm 4 mps 672 mmHg 28%
02:00 +23°C° 0 mm 4 mps 672 mmHg 29%
03:00 +22°C° 0 mm 3 mps 672 mmHg 30%
04:00 +22°C° 0 mm 3 mps 671 mmHg 32%
05:00 +25°C° 0 mm 4 mps 672 mmHg 29%
06:00 +27°C° 0 mm 5 mps 673 mmHg 26%
07:00 +29°C° 0 mm 6 mps 673 mmHg 23%
08:00 +32°C° 0 mm 8 mps 674 mmHg 21%
09:00 +34°C° 0 mm 9 mps 674 mmHg 19%
10:00 +36°C° 0 mm 11 mps 674 mmHg 18%
11:00 +37°C° 0 mm 10 mps 674 mmHg 16%
12:00 +39°C° 0 mm 10 mps 674 mmHg 15%
13:00 +40°C° 0 mm 9 mps 673 mmHg 14%
14:00 +40°C° 0 mm 10 mps 673 mmHg 14%
15:00 +39°C° 0 mm 10 mps 673 mmHg 13%
16:00 +39°C° 0 mm 10 mps 672 mmHg 13%
17:00 +38°C° 0 mm 9 mps 672 mmHg 15%
18:00 +35°C° 0 mm 8 mps 672 mmHg 16%
19:00 +33°C° 0 mm 7 mps 672 mmHg 17%
20:00 +32°C° 0 mm 7 mps 672 mmHg 19%
21:00 +30°C° 0 mm 6 mps 672 mmHg 20%
22:00 +28°C° 0 mm 6 mps 672 mmHg 21%
23:00 +28°C° 0 mm 5 mps 672 mmHg 22%

14 July, Tuesday

Time Temperature Precipitation Wind Pressure Humidity
00:00 +27°C° 0 mm 4 mps 672 mmHg 24%
01:00 +26°C° 0 mm 4 mps 672 mmHg 25%
02:00 +26°C° 0 mm 4 mps 672 mmHg 25%
03:00 +25°C° 0 mm 4 mps 672 mmHg 25%
04:00 +25°C° 0 mm 4 mps 672 mmHg 25%
05:00 +27°C° 0 mm 4 mps 673 mmHg 23%
06:00 +29°C° 0 mm 4 mps 674 mmHg 20%
07:00 +32°C° 0 mm 5 mps 675 mmHg 18%
08:00 +34°C° 0 mm 6 mps 675 mmHg 16%
09:00 +36°C° 0 mm 7 mps 675 mmHg 14%
10:00 +39°C° 0 mm 8 mps 676 mmHg 12%
11:00 +40°C° 0 mm 8 mps 676 mmHg 12%
12:00 +41°C° 0 mm 8 mps 675 mmHg 11%
13:00 +41°C° 0 mm 8 mps 675 mmHg 10%
14:00 +42°C° 0 mm 9 mps 675 mmHg 10%
15:00 +42°C° 0 mm 9 mps 675 mmHg 10%
16:00 +42°C° 0 mm 9 mps 674 mmHg 10%
17:00 +39°C° 0 mm 8 mps 674 mmHg 11%
18:00 +37°C° 0 mm 8 mps 674 mmHg 12%
19:00 +34°C° 0 mm 7 mps 674 mmHg 13%
20:00 +33°C° 0 mm 6 mps 674 mmHg 14%
21:00 +30°C° 0 mm 5 mps 674 mmHg 14%
22:00 +29°C° 0 mm 5 mps 674 mmHg 15%
23:00 +28°C° 0 mm 4 mps 674 mmHg 15%

15 July, Wednesday

Time Temperature Precipitation Wind Pressure Humidity
00:00 +27°C° 0 mm 3 mps 674 mmHg 15%
01:00 +26°C° 0 mm 3 mps 673 mmHg 16%
02:00 +25°C° 0 mm 2 mps 673 mmHg 16%
03:00 +25°C° 0 mm 2 mps 673 mmHg 17%
04:00 +24°C° 0 mm 2 mps 673 mmHg 17%
05:00 +26°C° 0 mm 2 mps 674 mmHg 15%
06:00 +29°C° 0 mm 1 mps 675 mmHg 14%
07:00 +31°C° 0 mm 1 mps 676 mmHg 12%
08:00 +34°C° 0 mm 4 mps 676 mmHg 11%
09:00 +38°C° 0 mm 6 mps 676 mmHg 10%
10:00 +40°C° 0 mm 8 mps 677 mmHg 8%
11:00 +42°C° 0 mm 9 mps 677 mmHg 8%
12:00 +42°C° 0 mm 9 mps 676 mmHg 8%
13:00 +43°C° 0 mm 10 mps 676 mmHg 8%
14:00 +42°C° 0 mm 10 mps 676 mmHg 9%
15:00 +42°C° 0 mm 10 mps 675 mmHg 9%
16:00 +42°C° 0 mm 10 mps 675 mmHg 9%
17:00 +39°C° 0 mm 9 mps 675 mmHg 9%
18:00 +37°C° 0 mm 8 mps 675 mmHg 10%
19:00 +34°C° 0 mm 7 mps 675 mmHg 11%
20:00 +33°C° 0 mm 7 mps 675 mmHg 12%
21:00 +30°C° 0 mm 7 mps 675 mmHg 13%
22:00 +29°C° 0 mm 6 mps 675 mmHg 14%
23:00 +28°C° 0 mm 6 mps 675 mmHg 15%

16 July, Thursday

Time Temperature Precipitation Wind Pressure Humidity
00:00 +27°C° 0 mm 6 mps 674 mmHg 16%
01:00 +26°C° 0 mm 5 mps 674 mmHg 18%
02:00 +26°C° 0 mm 5 mps 674 mmHg 18%
03:00 +26°C° 0 mm 5 mps 674 mmHg 19%
04:00 +25°C° 0 mm 5 mps 674 mmHg 19%
05:00 +27°C° 0 mm 6 mps 674 mmHg 17%
06:00 +29°C° 0 mm 7 mps 675 mmHg 16%
07:00 +32°C° 0 mm 8 mps 675 mmHg 14%
08:00 +33°C° 0 mm 9 mps 675 mmHg 13%
09:00 +34°C° 0 mm 11 mps 675 mmHg 12%
10:00 +37°C° 0 mm 12 mps 675 mmHg 11%
11:00 +38°C° 0 mm 12 mps 675 mmHg 10%
12:00 +38°C° 0 mm 12 mps 675 mmHg 10%
13:00 +39°C° 0 mm 12 mps 675 mmHg 9%
14:00 +39°C° 0 mm 12 mps 674 mmHg 9%
15:00 +39°C° 0 mm 12 mps 674 mmHg 9%
16:00 +39°C° 0 mm 12 mps 674 mmHg 9%
17:00 +37°C° 0 mm 12 mps 674 mmHg 11%
18:00 +34°C° 0 mm 11 mps 674 mmHg 12%
19:00 +33°C° 0 mm 10 mps 674 mmHg 13%
20:00 +32°C° 0 mm 10 mps 674 mmHg 15%
21:00 +31°C° 0 mm 10 mps 674 mmHg 17%
22:00 +29°C° 0 mm 10 mps 674 mmHg 18%
23:00 +28°C° 0 mm 9 mps 674 mmHg 19%
Show more